Tracking 20383 objects as of 23-Feb-2020
HD Live streaming from Space Station
objects crossing your sky now
Track the group of recently launched Starlink satellites

TITAN 3C TRANSTAGE DEB

Track TITAN 3C TRANSTAGE DEB now!
10-day predictions


NORAD ID: 1646
Int'l Code: 1965-082H
Perigee: 660.5 km
Apogee: 664.0 km
Inclination: 32.3 °
Period: 97.8 minutes
Semi major axis: 7033 km
RCS: 1.5264 m2 (large)
Launch date: October 15, 1965
Source: United States (US)
Launch site: AIR FORCE EASTERN TEST RANGE (AFETR)

Note: This is SATELLITE DEBRIS
aabbcc
Your satellite tracking list
Your tracking list is empty




NASA's NSSDC Master Catalog

Two Line Element Set (TLE):
1  1646U 65082H   20053.80714654 +.00000122 +00000-0 +13495-4 0  9994
2  1646 032.3104 175.4966 0002514 059.8828 300.2072 14.71877093879760
Source of the keplerian elements: AFSPC